Regional Weather Roundup
Issued by NWS Little Rock, AR

Home | Current Version | Previous Version | Text Only | Print | Product List | Glossary On
Versions: 1 2 3 4 5 6 7 8 9 10 11 12 13 14 15 16 17 18 19 20 21 22 23 24 25 26 27 28 29 30 31 32 33 34 35 36 37 38 39 40 41 42 43 44 45 46 47 48 49 50
000
ASUS44 KLZK 231005
RWRLZK

WEATHER ROUNDUP FOR ARKANSAS
NATIONAL WEATHER SERVICE LITTLE ROCK AR
500 AM CDT WED JUL 23 2014

NOTE: "FAIR" INDICATES FEW OR NO CLOUDS BELOW 12,000 FEET WITH NO
SIGNIFICANT WEATHER AND/OR OBSTRUCTIONS TO VISIBILITY.

ARZ001-003-010-029-231100-
NORTHWEST ARKANSAS

CITY           SKY/WX    TMP DP  RH WIND       PRES   REMARKS
FAYETTEVILLE   CLOUDY    73  71  93 S5        30.11S
FORT SMITH     PTCLDY    78  74  87 CALM      30.06F
HARRISON       MOCLDY    77  73  87 W3        30.10S
BENTONVILLE    MOCLDY    75  72  88 S3        30.12S
ROGERS         MOCLDY    76  72  87 SW6       30.12S
SILOAM SPGS    MOCLDY    73  68  83 S3        30.12S
HIGHFILL       MOCLDY    75  74  96 SW6       30.11S
$$

ARZ004-005-016-231100-
NORTH CENTRAL ARKANSAS

CITY           SKY/WX    TMP DP  RH WIND       PRES   REMARKS
BATESVILLE     CLEAR     73  68  83 SW3       30.05S
FLIPPIN        PTCLDY    75  66  73 CALM      30.07S
MTN HOME       PTCLDY    74  70  87 CALM      30.07R
$$

ARZ040-041-231100-
WEST CENTRAL ARKANSAS

CITY           SKY/WX    TMP DP  RH WIND       PRES   REMARKS
MENA           CLEAR     73  72  94 CALM      30.09F
MOUNT IDA      CLEAR     69  68  96 CALM      30.06S FOG
$$

ARZ009-017-025-026-028-231100-
NORTHEAST ARKANSAS

CITY           SKY/WX    TMP DP  RH WIND       PRES   REMARKS
CORNING        FAIR      72  72 100 SW3       30.05R FOG
JONESBORO      CLEAR     73  69  87 NW5       30.04S
NEWPORT        CLEAR     70  69  96 CALM      30.06R
WALNUT RIDGE   CLEAR     73  57  56 W5        30.04R
BLYTHEVILLE    CLEAR     73  71  93 CALM      30.05R
$$

ARZ022-023-033-042-044-231100-
CENTRAL ARKANSAS

CITY           SKY/WX    TMP DP  RH WIND       PRES   REMARKS
LITTLE ROCK    CLEAR     72  68  87 CALM      30.05S FOG
N LITTLE ROCK    N/A     73  70  91 SW3       30.05S
JACKSONVILLE   CLEAR     68  67  97 CALM      30.05S
SEARCY         CLEAR     68  68 100 CALM      30.06S FOG
HOT SPRINGS    CLEAR     70  68  93 CALM      30.07S
RUSSELLVILLE   MOCLDY    73  71  93 CALM      30.05S
CLINTON        MOCLDY    70  70 100 CALM      30.07S FOG
$$

ARZ036-231100-
EAST ARKANSAS

CITY           SKY/WX    TMP DP  RH WIND       PRES   REMARKS
WEST MEMPHIS   CLEAR     71  71 100 CALM      30.04R FOG
$$

ARZ050-053-066-070-073-231100-
SOUTHWEST ARKANSAS

CITY           SKY/WX    TMP DP  RH WIND       PRES   REMARKS
ARKADELPHIA    FOG       70  70 100 CALM      30.07R VSB 3/4
CAMDEN         FOG       68  66  94 CALM      30.06S VSB<1/4
TEXARKANA      CLEAR     70  69  97 CALM      30.07R FOG
EL DORADO      CLEAR     69  68  96 CALM      30.07S
DE QUEEN       FOG       69  69 100 CALM      30.05S VSB 1/4
$$

ARZ056-057-069-231100-
SOUTHEAST ARKANSAS

CITY           SKY/WX    TMP DP  RH WIND       PRES   REMARKS
PINE BLUFF     CLEAR     71  69  93 CALM      30.05S
STUTTGART      CLEAR     72  66  83 W5        30.05S
MONTICELLO     CLEAR     69  67  93 CALM      30.05S

$$





USA.gov is the U.S. government's official web portal to all federal, state and local government web resources and services.